STARLINK-32079, 60336

Orbit data source: Space-Track

STARLINK-32079, 60336 is a payload satellite owned by SpaceX/Seattle (US) in LEO that was launched on Fri, 02 Aug 2024 UTC via an FALCON 9 launch vehicle from the Air Force Eastern Test Range (AFETR). Payload-class satellites include a variety of spacecraft equipped with specific instruments for various scientific and technological missions. These include communications satellites like Starlink; space stations such as the ISS; scientific satellites like the Hubble; Earth observation satellites from companies like Planet Labs, Umbra, and HawkEye 360; GPS; miniature CubeSats for education and research; and military/defense satellites.

Loading next visibility...
Identifier
60336, 2024-136H
Orbit
LEO
Last TLE update
15 hours ago
Origin
Manufacturer
SpaceX/Seattle
Mission
Operational Commercial Communications
Bus & Motor
STARLINK V2M, Unknown motor
Mass
730 kg wet, ~700 kg dry
Launch date (UTC)
2024-08-02 (9 months ago)
Launch vehicle
FALCON 9
Launch site
Air Force Eastern Test Range (AFETR)
Object type
Payload
Rocket body
Debris
Shape & HBR
Box + 2 Pan, 29 m
Radar Cross Section
33.884 m², Large (>1 m²)

Expand to show TLE details & history

TLE from 15 hours ago
0 STARLINK-32079
1 60336U 24136H   25132.98362596 -.00000444  00000-0 -28558-5 0  9992
2 60336  53.1622  32.5219 0001438  89.0289 271.0877 15.30182265 44837
Epoch: 2025-05-12T23:36Z
Definitive object data (Epoch: 2025-05-12T23:36:25.282Z)
Latitude
-0.00001°
Longitude
167.42767°
Altitude
476.149 km
Speed
7.629 km/s
True Right ascension
02h 10m 05s
True Declination
0° 00' 00"
Sunlit
Object was in daylight at TLE epoch
Visualization TLE readout
Latitude
-10.85573°
Longitude
-7.25266°
Altitude
478.422 km
Speed
7.627 km/s
Apparent Right ascension
13h 03m 21s
Apparent Declination
-27° 08' 42"
Sunlit
Object is in full shadow
Visualization observer readout
Local Sidereal Time
22:59:20
Azimuth
286.927° WNW
Elevation
-61.374°
Doppler factor
1
Orbital elements
Apogee altitude
476.51 km
Perigee altitude
474.539 km
Semi-major axis
6,853.661 km
Eccentricity
0.0001438
Inclination
53.1622°
RAAN
32.5219°
Arg. of periapsis
89.0289°
True anomaly
271.07122°
Mean anomaly
271.0877°
Eccentric anomaly
271.07946°
Mean motion
3.82524 °/min
BSTAR
-0.0000028558
Orbital period
94.11 mins
Loading maneuver chart data...
Loading SW <> Apogee altitude chart data...
Loading historical data...
Loading historical data...
Loading historical data...
Loading historical data...
Loading historical data...
Loading historical data...
Loading historical data...

STARLINK-32079 Visibility forecast

Observer location: undefined°, undefined°

Span
Click to sort rows by Start time (UTC) header in descending order
Start Az.
Max El. time (UTC)
Max El. Az.
Max El.
End time (UTC)
End Az.
5 mins2025-05-13 20:11:24.434Z241.145° WSW2025-05-13 20:13:24.434Z316.076° NNW43.427°2025-05-13 20:16:24.434Z44.989° NE
4 mins2025-05-14 01:08:24.434Z347.445° N2025-05-14 01:10:24.434Z27.496° NE17.76°2025-05-14 01:12:24.434Z64.022° ENE
5 mins2025-05-14 02:46:24.434Z308.583° NW2025-05-14 02:48:24.434Z275.047° WNW44.81°2025-05-14 02:51:24.434Z132.776° SE
|